Flag for Austria Weather past 2 weeks in Vöcklabruck, Upper Austria, Austria

Now
N/A

Passing clouds.


Feels Like: N/A
Forecast: 38 / 52 °F
Wind: 18 mph from South

Location: Kremsmuenster

Current Time: Mar 30, 2015 at 3:55:10 PM

Latest Report: Mar 30, 2015 at 3:00 PM


Visibility: 1 mi

Pressure: N/A

Humidity: N/A

Dew point: N/A

Location of VöcklabruckLocation

Historic Weather in Vöcklabruck — Graph

°F

Vöcklabruck temperature yesterday

Maximum temperature yesterday: 58 °F (at 3:00 PM)
Minimum temperature yesterday: 40 °F (at 12:00 AM)
Average temperature yesterday: 50 °F

Past Weeks' High & Low Weather Summary

 TemperatureHumidityPressure
High60 °F (Mar 16, 2:00 PM)97% (Mar 24, 3:00 AM)30.34 "Hg (Mar 24, 3:00 AM)
Low31 °F (Mar 21, 6:00 AM)23% (Mar 19, 5:00 PM)29.50 "Hg (Mar 30, 5:00 AM)
Average45 °F70%30.05 "Hg
* Reported Mar 15 1:00 PM — Mar 30 2:00 PM, Vöcklabruck, Weather by CustomWeather, © 2015

Note: Actual official high and low records may vary slightly from our data, if they occured in-between our weather recording intervals... More about our weather records

Advertising

Vöcklabruck weather history for previous 24 hours

 ConditionsComfort  
Time TempWeatherWind HumidityBarometerVisibility
2:00 PM
Mon, Mar 30
43 °FQuite cool.8 mph81%29.66 "HgN/A
1:00 PM42 °FQuite cool.8 mph83%29.65 "HgN/A
12:00 PM45 °FFog.8 mph86%29.61 "HgN/A
11:00 AM46 °FRain. Low clouds.9 mph89%29.56 "Hg2 mi
10:00 AM46 °FFog.6 mph93%29.54 "HgN/A
9:00 AM43 °FFog.1 mph94%29.57 "HgN/A
8:00 AM43 °FRain. Low clouds.3 mph91%29.59 "Hg2 mi
7:00 AM47 °FRain. Low clouds.10 mph86%29.57 "Hg2 mi
6:00 AM48 °FFog.6 mph89%29.54 "HgN/A
5:00 AM49 °FCool.8 mph82%29.50 "HgN/A
4:00 AM51 °FSprinkles. Overcast.12 mph77%29.53 "HgN/A
3:00 AM51 °FSprinkles. Overcast.10 mph75%29.56 "HgN/A
2:00 AM50 °FCool.9 mph79%29.58 "HgN/A
1:00 AM51 °FFog.8 mph79%29.59 "HgN/A
12:00 AM51 °FFog.8 mph80%29.60 "HgN/A
11:00 PM
Sun, Mar 29
52 °FCool.6 mph74%29.62 "HgN/A
10:00 PM51 °FSprinkles. Overcast.6 mph76%29.65 "HgN/A
9:00 PM49 °FFog.6 mph85%29.69 "HgN/A
8:00 PM49 °FLight rain. Overcast.6 mph89%29.73 "Hg2 mi
7:00 PM50 °FFog.6 mph83%29.75 "HgN/A
6:00 PM53 °FCool.9 mph67%29.72 "HgN/A
5:00 PM56 °FDrizzle. Overcast.6 mph60%29.71 "Hg9 mi
4:00 PM58 °FRefreshingly cool.5 mph55%29.71 "HgN/A
3:00 PM58 °FRefreshingly cool.5 mph59%29.74 "HgN/A
Weather by CustomWeather, © 2015

See weather overviewHow to use our weather pages